EHI
0 0 0 0 0 0 0 0 0 0 0 0 0 0 0 0 0 0 0 0 0 0 1 1 2 4 5 4 3 3 1 0 0 0 0 0 0 0 0 0 0 0 0 0
0 0 0 0 0 0 0 0 0 0 0 0 0 0 0 0 0 0 0 0 0 0 1 1 2 4 4 3 3 3 2 1 0 0 0 0 0 0 0 0 0 0 0 0
0 0 0 0 0 0 0 0 0 0 0 0 0 0 0 0 0 0 0 0 0 0 0 1 2 3 3 3 3 2 2 1 0 0 0 0 0 0 0 0 0 0 0 0
0 0 0 0 0 0 0 0 0 0 0 0 0 0 0 0 0 0 0 0 0 0 0 0 1 3 3 2 1 1 1 0 0 0 0 0 0 0 0 0 0 0 0 0
0 0 0 0 0 0 0 0 0 0 0 0 0 0 0 0 0 0 0 0 0 0 0 0 1 2 2 1 0 0 0 0 0 0 0 0 0 0 0 0 0 0 0 0
0 0 0 0 0 0 0 0 0 0 0 0 0 0 0 0 0 0 0 0 0 0 0 0 0 1 1 0 0 0 0 0 0 0 0 0 0 0 0 0 0 0 0 0
0 0 0 0 0 0 0 0 0 0 0 0 0 0 0 0 0 0 0 0 0 0 0 0 0 0 0 0 0 0 0 0 0 0 0 0 0 0 0 0 0 0 0 0
0 0 0 0 0 0 0 0 0 0 0 0 0 0 0 0 0 0 0 0 0 0 0 0 0 0 0 0 0 0 0 0 0 0 0 0 0 0 0 0 0 0 0 0
0 0 0 0 0 0 0 0 0 0 0 0 0 0 0 0 0 0 0 0 0 0 0 0 0 0 0 0 0 0 0 0 0 0 0 0 0 0 0 0 0 0 0 0
0 0 0 0 0 0 0 0 0 0 0 0 0 0 0 0 0 0 0 0 0 0 0 0 0 0 0 0 0 0 0 0 0 0 0 0 0 0 0 0 0 0 0 0
0 0 0 0 0 0 0 0 0 0 0 0 0 0 0 0 0 0 0 0 0 0 0 0 0 0 0 0 0 0 0 0 0 0 0 0 0 0 0 0 0 0 0 0
0 0 0 0 0 0 0 0 0 0 0 0 0 0 0 0 0 0 0 0 0 0 0 0 0 0 0 0 0 0 0 0 0 0 0 0 0 0 0 0 0 0 0 0
0 0 0 0 0 0 0 0 0 0 0 0 0 0 0 0 0 0 0 0 0 0 0 0 0 0 0 0 0 0 0 0 0 0 0 0 0 0 0 0 0 0 0 0
0 0 0 0 0 0 0 0 0 0 0 0 0 0 0 0 0 0 0 0 0 0 0 0 0 0 0 0 0 0 0 0 0 0 0 0 0 0 0 0 0 0 0 0
0 0 0 0 0 0 0 0 0 0 0 0 0 0 0 0 0 0 0 0 0 0 0 0 0 0 0 0 0 0 0 0 0 0 0 0 0 0 0 0 0 0 0 0
0 0 0 0 0 0 0 0 0 0 0 0 0 0 0 0 0 0 0 0 0 0 0 0 0 0 0 0 0 0 0 0 0 0 0 0 0 0 0 0 0 0 0 0
0 0 0 0 0 0 0 0 0 0 0 0 0 0 0 0 0 0 0 0 0 0 0 0 0 0 0 0 0 0 0 0 0 0 0 0 0 0 0 0 0 0 0 0
0 0 0 0 0 0 0 0 0 0 0 0 0 0 0 0 0 0 0 0 0 0 0 0 0 0 0 0 0 0 0 0 0 0 0 0 0 0 0 0 0 0 0 0
0 0 0 0 0 0 0 0 0 0 0 0 0 0 0 0 0 0 0 0 0 0 0 0 0 0 0 0 0 0 0 0 0 0 0 0 0 0 0 0 0 0 0 0
0 0 0 0 0 0 0 0 0 0 0 0 0 0 0 0 0 0 0 0 0 0 0 0 0 0 0 0 0 0 0 0 0 0 0 0 0 0 0 0 0 0 0 0
0 0 0 0 0 0 0 0 0 0 0 0 0 0 0 0 0 0 0 0 0 0 0 0 0 0 0 0 0 0 0 0 0 0 0 0 0 0 0 0 0 0 0 0
0 0 0 0 0 0 0 0 0 0 0 0 0 0 0 0 0 0 0 0 0 0 0 0 0 0 0 0 0 0 0 0 0 0 0 0 0 0 0 0 0 0 0 0
0 0 0 0 0 0 0 0 0 0 0 0 0 0 0 0 0 0 0 0 0 0 0 0 0 0 0 0 0 0 0 0 0 0 0 0 0 0 0 0 0 0 0 0
0 0 0 0 0 0 0 0 0 0 0 0 0 0 0 0 0 0 0 0 0 0 0 0 0 0 0 0 0 0 0 0 0 0 0 0 0 0 0 0 0 0 0 0
0 0 0 0 0 0 0 0 0 0 0 0 0 0 0 0 0 0 0 0 0 0 0 0 0 0 0 0 0 0 0 0 0 0 0 0 0 0 0 0 0 0 0 0
0 0 0 0 0 0 0 0 0 0 0 0 0 0 0 0 0 0 0 0 0 0 0 0 0 0 0 0 0 0 0 0 0 0 0 0 0 0 0 0 0 0 0 0
0 0 0 0 0 0 0 0 0 0 0 0 0 0 0 0 0 0 0 0 0 0 0 0 0 0 0 0 0 0 0 0 0 0 0 0 0 0 0 0 0 0 0 0
Wind_Speed
6 7 5 6 7 5 4 6 6 7 5 5 4 3 3 1 0 1 1 1 2 2 2 2 2 2 2 2 2 3 3 2 2 1 1 1 1 1 1 1 1 1 2 3
4 4 4 5 6 5 5 4 4 4 4 3 2 1 1 0 1 1 2 3 2 2 2 3 3 3 2 3 3 3 3 3 2 1 0 1 1 1 1 1 2 2 2 2
4 5 3 4 4 3 1 1 1 2 4 3 3 3 3 2 2 2 2 2 2 2 3 4 4 4 4 4 3 3 3 2 2 2 1 1 1 0 1 1 2 2 2 2
2 3 3 5 2 1 0 1 2 2 2 2 3 4 3 2 2 2 2 2 3 2 3 3 3 4 3 3 3 3 2 2 2 2 2 1 1 1 1 1 1 2 3 3
1 2 5 4 3 2 1 2 2 2 3 4 4 4 2 1 1 3 3 2 3 3 2 2 3 3 4 3 3 3 3 3 2 2 2 2 2 2 1 1 1 2 2 3
1 2 4 4 6 5 0 2 3 2 2 2 4 3 5 4 3 3 2 2 2 1 1 1 3 3 4 4 3 4 4 3 2 2 3 3 3 2 1 1 2 2 3 3
2 3 6 4 6 4 2 5 5 2 2 1 2 4 5 4 3 3 2 2 1 0 1 2 3 4 4 3 4 4 3 2 2 2 2 2 2 1 1 1 1 2 3 4
1 2 6 4 4 1 4 4 3 3 2 2 3 3 3 2 3 3 2 1 0 0 1 1 2 4 4 4 3 2 2 2 2 2 2 1 1 1 0 1 1 2 3 4
5 6 5 4 3 4 3 4 4 3 4 2 3 4 3 2 2 3 2 1 1 1 1 1 2 3 4 3 2 2 2 2 1 1 1 1 1 1 1 1 1 2 2 4
4 7 7 6 6 6 4 4 5 4 4 3 4 4 4 2 2 3 2 2 1 1 2 2 2 2 3 3 3 3 2 2 1 1 1 1 1 1 1 2 2 2 3 3
6 8 8 6 5 5 6 5 4 4 5 5 4 4 4 3 3 3 2 2 2 2 3 3 2 2 2 3 4 3 2 2 1 1 1 1 2 2 3 4 4 4 4 4
8 8 7 10 8 7 6 6 5 5 5 5 4 5 4 4 3 3 3 2 2 2 3 3 2 3 2 3 4 4 2 2 1 1 1 1 2 3 4 5 6 7 8 7
8 8 8 9 9 7 7 7 6 5 5 6 5 4 4 4 3 3 3 3 3 4 3 3 3 3 3 3 4 4 3 3 2 2 2 2 1 2 3 5 4 4 5 6
5 4 6 7 8 7 6 6 5 4 4 4 4 3 2 2 2 3 4 4 4 3 3 3 4 4 4 4 4 3 3 3 3 2 2 2 2 2 2 3 4 4 4 4
6 5 6 7 6 5 4 4 4 4 4 4 3 3 3 3 4 4 4 3 2 3 3 3 3 4 3 4 4 3 3 2 2 2 2 2 2 2 2 2 3 3 4 5
6 5 4 4 5 5 5 4 4 5 4 4 3 4 4 4 4 4 3 3 3 4 4 4 4 4 4 4 4 3 2 3 3 2 2 2 2 2 2 2 3 3 3 4
3 5 5 6 6 7 6 6 5 5 4 4 4 4 3 2 2 3 4 4 4 4 4 4 4 3 4 4 4 3 2 2 2 1 1 2 2 2 2 2 3 3 4 4
6 7 7 7 7 7 7 6 5 5 5 5 3 3 3 4 5 5 4 2 2 2 3 3 3 3 3 4 4 3 2 2 2 1 1 1 2 2 2 3 3 4 4 4
6 6 7 6 6 6 6 6 5 5 4 4 3 4 5 5 5 4 3 3 3 4 4 3 3 3 3 3 4 3 3 2 1 1 1 1 2 2 2 3 3 4 4 4
6 6 6 6 5 5 5 5 4 4 4 4 3 3 5 5 4 4 3 4 5 4 4 3 3 3 3 3 4 3 3 3 2 1 1 1 2 2 2 3 3 3 4 3
7 6 6 5 5 5 5 4 4 4 4 4 4 5 6 5 4 3 3 4 4 3 3 4 3 3 3 3 4 3 3 3 2 2 2 2 2 2 3 3 3 3 3 3
7 6 6 6 5 6 5 4 4 4 4 4 4 4 4 4 4 3 4 4 3 4 3 3 3 3 4 4 3 3 3 3 2 2 2 2 2 2 3 3 3 3 3 3
7 6 6 5 6 6 5 4 4 4 4 5 5 5 5 5 4 3 4 3 3 5 3 3 4 6 6 3 3 3 3 3 2 2 2 3 3 3 3 3 3 3 3 3
7 6 6 5 4 4 5 5 4 3 4 4 4 5 4 3 3 3 3 4 5 6 4 4 6 7 6 3 3 3 3 3 3 3 3 3 2 3 3 3 3 3 3 3
7 6 5 4 3 4 4 4 3 3 3 2 3 4 4 4 4 3 3 4 5 6 3 4 7 7 4 3 3 3 3 3 3 3 3 3 3 3 3 3 3 3 2 2
6 5 5 5 4 4 3 3 3 3 2 2 2 2 2 2 2 2 2 4 5 5 4 3 4 5 4 4 4 4 3 3 4 4 3 3 3 3 3 2 3 2 2 2
5 4 3 3 3 3 3 3 3 4 4 3 3 3 2 2 2 3 3 3 3 4 3 3 3 4 4 4 4 3 3 3 3 3 3 3 3 2 2 2 2 1 1 1
Wind_Direction
252 264 261 260 266 261 234 215 219 250 246 272 268 267 265 267 73 119 189 211 208 215 214 196 192 195 185 189 179 169 167 182 206 231 245 258 279 307 331 316 278 278 294 301
286 277 266 272 278 264 258 247 245 265 279 313 311 348 319 191 173 220 246 252 253 255 236 211 204 201 193 192 185 168 174 196 198 180 228 264 289 324 344 333 324 323 307 300
290 311 332 289 272 249 228 260 207 249 281 328 339 301 249 216 214 225 248 265 265 257 243 225 213 199 198 196 177 173 183 193 179 177 207 243 261 324 306 310 326 324 312 310
292 346 254 250 331 28 14 49 25 346 332 316 306 292 251 207 211 252 260 273 270 268 264 239 207 192 183 170 167 175 185 196 188 189 209 231 251 278 294 305 300 300 309 310
152 270 281 307 345 338 272 293 6 346 357 3 7 6 320 290 234 238 239 250 257 251 255 229 201 184 165 167 167 174 194 209 207 198 203 215 236 257 272 294 302 298 303 308
152 239 253 278 322 321 5 285 346 4 7 357 13 353 292 305 305 296 288 268 270 281 315 211 198 168 165 177 178 198 209 212 207 195 198 216 235 242 242 244 270 297 307 304
207 243 267 295 334 8 47 279 310 314 292 247 253 252 276 293 296 293 287 272 273 247 196 220 188 161 171 184 203 213 203 191 185 195 211 224 233 223 239 269 303 310 306 305
181 238 264 334 9 5 256 287 297 294 280 261 283 301 307 308 308 309 305 302 283 202 247 221 182 169 179 206 216 188 168 175 192 213 227 226 204 246 239 224 294 305 311 314
206 231 264 309 292 285 275 290 289 281 288 273 288 290 288 290 305 304 287 281 286 217 248 242 203 190 198 216 186 162 158 180 202 207 229 213 190 224 272 259 264 289 300 303
281 278 292 300 306 306 296 286 285 277 273 263 270 275 269 260 281 294 284 273 265 201 226 239 232 220 212 206 172 160 171 194 205 199 238 267 237 219 228 247 256 271 280 288
274 287 305 298 295 301 310 303 296 296 282 257 249 261 253 244 249 260 265 266 248 225 230 237 234 239 217 187 167 169 180 195 207 205 210 253 266 241 232 240 225 230 251 256
251 259 266 277 284 291 293 286 279 286 290 277 250 239 243 241 238 241 243 244 249 241 237 235 222 235 216 180 170 170 182 197 204 218 232 241 270 303 277 252 260 248 244 247
252 270 269 274 281 286 282 279 275 268 259 266 268 242 230 236 237 237 242 243 242 232 227 218 211 219 212 185 172 175 187 202 208 219 233 247 255 269 303 315 307 285 274 269
259 280 285 282 282 287 286 288 288 283 272 260 264 255 240 245 236 232 240 243 242 231 225 210 210 221 210 186 176 182 189 203 210 220 225 235 246 254 260 285 310 314 308 299
276 274 265 281 290 296 297 298 298 292 285 281 266 233 223 230 235 245 248 239 240 232 223 210 215 223 201 184 181 189 195 213 221 227 228 236 248 258 267 271 276 291 309 315
300 308 295 290 291 294 296 288 276 272 266 259 255 242 236 234 234 248 247 222 213 220 217 207 221 218 194 180 179 191 207 220 218 222 238 249 259 267 277 279 282 288 292 295
299 306 303 295 290 286 279 273 260 259 255 244 242 248 246 239 243 249 249 235 218 215 209 209 224 214 192 183 181 191 203 221 220 227 244 247 254 264 270 275 281 283 281 278
255 259 259 256 265 274 278 278 267 253 247 240 230 229 229 229 236 245 250 230 207 225 227 218 219 202 191 186 181 182 188 206 219 236 255 263 265 264 269 276 284 289 295 300
287 280 279 273 269 267 267 267 259 248 241 226 218 229 242 245 240 241 233 199 202 228 240 219 202 189 190 193 178 175 180 188 196 225 248 270 284 287 279 281 286 289 294 301
298 294 292 287 283 278 271 269 258 253 239 221 222 239 252 253 239 226 212 215 221 219 210 195 184 182 189 189 176 175 181 185 193 222 250 267 278 290 290 289 291 294 298 297
300 300 298 295 292 289 275 260 242 247 244 224 221 231 242 250 237 213 202 233 247 212 188 179 177 182 183 176 171 172 177 183 195 219 244 264 275 285 295 297 297 298 301 301
299 293 292 293 294 295 284 257 241 243 242 235 233 233 236 241 237 226 219 222 220 191 181 182 185 183 176 166 168 171 177 188 205 224 243 256 262 274 285 294 296 297 298 296
289 284 283 282 282 288 288 271 252 238 230 226 223 223 225 229 220 212 234 226 192 190 188 189 182 174 172 167 172 177 183 196 213 230 242 245 249 256 267 281 287 291 294 297
290 283 278 279 287 295 289 282 269 254 240 233 227 221 215 219 235 228 212 195 193 187 191 186 178 177 173 172 174 185 197 212 225 239 245 246 250 256 262 269 279 286 290 296
287 282 278 274 274 273 273 278 279 270 256 249 242 233 221 209 212 218 196 188 184 181 188 188 183 180 177 180 186 197 211 223 230 235 238 242 249 257 263 270 280 287 293 300
282 268 261 251 250 255 261 260 258 256 243 248 258 249 234 218 196 185 181 184 182 182 187 188 182 179 184 189 197 205 215 225 232 235 237 239 246 251 263 271 281 288 295 312
281 270 267 274 272 257 246 242 244 245 236 229 240 241 220 207 192 183 183 187 186 186 188 188 182 181 187 192 198 207 214 221 226 230 230 233 238 240 250 259 274 288 300 317